993  
SXUS52 KJAX 182114  
OSOJAX  
OTHER SURFACE OBSERVATIONS  
NATIONAL WEATHER SERVICE JACKSONVILLE FL  
500 PM EDT THU JUL 18 2019  
 
FLZ020>025-030>033-035>038-040-182200-   
..FLORIDA
 
 
 
CITY SKY/WX TMP DP RH WIND PRES REMARKS  
CECIL FIELD MOSUNNY 93 73 52 S9 30.03F HX 102  
HERLONG FIELD NOT AVBL  
FERNANDINA BCH NOT AVBL  
LAKE CITY FAIR 88 72 58 W9 30.05F  
JUNIPER SPGS NOT AVBL  
BUNNELL NOT AVBL  
KEYSTONE HGTS CLEAR 90 70 51 W5 30.03F  

 
 
GAZ132>136-149>154-162>166-182200-   
..GEORGIA
 
 
 
CITY SKY/WX TMP DP RH WIND PRES REMARKS  
JESUP MOCLDY 97 70 41 SW12 30.00S HX 103  
HOMERVILLE MOCLDY 82 72 69 CALM 30.04F  
SWAINSBORO CLOUDY 97 64 34 CALM 30.00R  
CORDELE FAIR 94 69 43 CALM 30.01F  
EASTMAN MOCLDY 96 67 37 W8 30.02S HX 100  

 
 
PLEASE NOTE: THESE OBSERVATIONS ARE NOT QUALITY CONTROLLED AND MAY  
NOT BE AVAILABLE AT ALL TIMES.  

 
 
 
CLICK HERE TO GO TO PREVIOUS BULLETINS.

The Nexlab FL Page
The Nexlab GA Page Main Text Page